• In Russia
  • List of Countries
  • For 7 days
  • Water Temperature
  • Satellite Maps
  • Weather Map
  • Weather Widgets
  • user-avatar
    Login

    Hourly Weather Falaba

    Today, 13 December, Thursday

    Time Temperature Precipitation Wind Pressure Humidity
    00:00 +22°C° 0.8 mm 0 mps 742 mmHg 95%
    01:00 +22°C° 0.8 mm 0 mps 742 mmHg 95%
    02:00 +22°C° 0.8 mm 0 mps 742 mmHg 96%
    03:00 +22°C° 0.8 mm 0 mps 742 mmHg 96%
    04:00 +21°C° 0.8 mm 0 mps 742 mmHg 96%
    05:00 +21°C° 0.8 mm 0 mps 742 mmHg 96%
    06:00 +23°C° 0.2 mm 0 mps 742 mmHg 91%
    07:00 +24°C° 0.2 mm 0 mps 743 mmHg 86%
    08:00 +25°C° 0.2 mm 0 mps 743 mmHg 81%
    09:00 +29°C° 0.1 mm 1 mps 743 mmHg 70%
    10:00 +32°C° 0.1 mm 1 mps 743 mmHg 59%
    11:00 +34°C° 0.1 mm 1 mps 743 mmHg 48%
    12:00 +34°C° 0 mm 1 mps 742 mmHg 46%
    13:00 +35°C° 0 mm 1 mps 741 mmHg 44%
    14:00 +33°C° 0 mm 0 mps 741 mmHg 42%
    15:00 +32°C° 0 mm 0 mps 741 mmHg 48%
    16:00 +32°C° 0 mm 1 mps 741 mmHg 53%
    17:00 +31°C° 0 mm 1 mps 741 mmHg 58%
    18:00 +29°C° 0.1 mm 1 mps 741 mmHg 64%
    19:00 +28°C° 0.1 mm 1 mps 742 mmHg 70%
    20:00 +27°C° 0.1 mm 1 mps 742 mmHg 76%
    21:00 +26°C° 0.4 mm 1 mps 742 mmHg 82%
    22:00 +23°C° 0.4 mm 0 mps 743 mmHg 88%
    23:00 +23°C° 0.4 mm 0 mps 743 mmHg 93%

    Tomorrow, 14 December, Friday

    Time Temperature Precipitation Wind Pressure Humidity
    00:00 +22°C° 0.3 mm 0 mps 742 mmHg 95%
    01:00 +22°C° 0.3 mm 0 mps 742 mmHg 96%
    02:00 +22°C° 0.3 mm 0 mps 742 mmHg 97%
    03:00 +22°C° 0.3 mm 0 mps 742 mmHg 98%
    04:00 +22°C° 0.3 mm 0 mps 742 mmHg 98%
    05:00 +21°C° 0.3 mm 0 mps 742 mmHg 98%
    06:00 +23°C° 0.2 mm 0 mps 743 mmHg 93%
    07:00 +24°C° 0.2 mm 0 mps 743 mmHg 88%
    08:00 +25°C° 0.2 mm 0 mps 744 mmHg 83%
    09:00 +30°C° 0.1 mm 1 mps 744 mmHg 72%
    10:00 +32°C° 0.1 mm 1 mps 743 mmHg 61%
    11:00 +34°C° 0.1 mm 1 mps 743 mmHg 50%
    12:00 +34°C° 0 mm 1 mps 742 mmHg 46%
    13:00 +35°C° 0 mm 1 mps 742 mmHg 43%
    14:00 +35°C° 0 mm 1 mps 741 mmHg 39%
    15:00 +34°C° 0 mm 1 mps 741 mmHg 43%
    16:00 +33°C° 0 mm 1 mps 741 mmHg 46%
    17:00 +29°C° 0 mm 0 mps 741 mmHg 50%
    18:00 +28°C° 0 mm 0 mps 742 mmHg 54%
    19:00 +26°C° 0 mm 0 mps 742 mmHg 59%
    20:00 +24°C° 0 mm 0 mps 743 mmHg 63%
    21:00 +23°C° 0 mm 0 mps 743 mmHg 68%
    22:00 +23°C° 0 mm 0 mps 743 mmHg 72%
    23:00 +22°C° 0 mm 0 mps 743 mmHg 77%

    Day after tomorrow, 15 December, Saturday

    Time Temperature Precipitation Wind Pressure Humidity
    00:00 +22°C° 0 mm 0 mps 743 mmHg 81%
    01:00 +21°C° 0 mm 0 mps 742 mmHg 86%
    02:00 +21°C° 0 mm 0 mps 742 mmHg 90%
    03:00 +21°C° 0 mm 0 mps 742 mmHg 90%
    04:00 +21°C° 0 mm 0 mps 743 mmHg 91%
    05:00 +21°C° 0 mm 0 mps 743 mmHg 92%
    06:00 +22°C° 0 mm 0 mps 744 mmHg 86%
    07:00 +24°C° 0 mm 0 mps 744 mmHg 81%
    08:00 +25°C° 0 mm 0 mps 745 mmHg 75%
    09:00 +28°C° 0 mm 0 mps 745 mmHg 63%
    10:00 +30°C° 0 mm 0 mps 744 mmHg 51%
    11:00 +34°C° 0 mm 1 mps 744 mmHg 39%
    12:00 +35°C° 0 mm 1 mps 743 mmHg 34%
    13:00 +36°C° 0 mm 1 mps 742 mmHg 28%
    14:00 +37°C° 0 mm 1 mps 741 mmHg 23%
    15:00 +35°C° 0 mm 1 mps 741 mmHg 28%
    16:00 +33°C° 0 mm 1 mps 741 mmHg 32%
    17:00 +29°C° 0 mm 0 mps 741 mmHg 37%
    18:00 +27°C° 0 mm 0 mps 742 mmHg 39%
    19:00 +25°C° 0 mm 0 mps 742 mmHg 41%
    20:00 +24°C° 0 mm 0 mps 743 mmHg 44%
    21:00 +23°C° 0 mm 0 mps 743 mmHg 46%
    22:00 +22°C° 0 mm 0 mps 743 mmHg 48%
    23:00 +21°C° 0 mm 0 mps 743 mmHg 51%

    16 December, Sunday

    Time Temperature Precipitation Wind Pressure Humidity
    00:00 +21°C° 0 mm 0 mps 742 mmHg 55%
    01:00 +20°C° 0 mm 0 mps 742 mmHg 60%
    02:00 +20°C° 0 mm 0 mps 742 mmHg 65%
    03:00 +20°C° 0 mm 0 mps 742 mmHg 68%
    04:00 +20°C° 0 mm 0 mps 742 mmHg 72%
    05:00 +19°C° 0 mm 0 mps 742 mmHg 75%
    06:00 +21°C° 0 mm 0 mps 743 mmHg 71%
    07:00 +23°C° 0 mm 0 mps 743 mmHg 66%
    08:00 +25°C° 0 mm 0 mps 744 mmHg 62%
    09:00 +27°C° 0 mm 0 mps 744 mmHg 52%
    10:00 +32°C° 0 mm 1 mps 743 mmHg 42%
    11:00 +35°C° 0 mm 1 mps 743 mmHg 32%
    12:00 +35°C° 0 mm 1 mps 742 mmHg 29%
    13:00 +36°C° 0 mm 1 mps 741 mmHg 25%
    14:00 +37°C° 0 mm 1 mps 740 mmHg 21%
    15:00 +35°C° 0 mm 1 mps 741 mmHg 27%
    16:00 +33°C° 0 mm 1 mps 741 mmHg 32%
    17:00 +28°C° 0 mm 0 mps 741 mmHg 37%
    18:00 +27°C° 0 mm 0 mps 741 mmHg 40%
    19:00 +25°C° 0 mm 0 mps 742 mmHg 42%
    20:00 +24°C° 0 mm 0 mps 743 mmHg 45%
    21:00 +23°C° 0 mm 0 mps 743 mmHg 52%
    22:00 +22°C° 0 mm 0 mps 743 mmHg 60%
    23:00 +24°C° 0 mm 1 mps 743 mmHg 67%

    17 December, Monday

    Time Temperature Precipitation Wind Pressure Humidity
    00:00 +21°C° 0 mm 0 mps 742 mmHg 74%
    01:00 +21°C° 0 mm 0 mps 742 mmHg 81%
    02:00 +21°C° 0 mm 0 mps 741 mmHg 88%
    03:00 +21°C° 0 mm 0 mps 742 mmHg 90%
    04:00 +22°C° 0 mm 0 mps 742 mmHg 92%
    05:00 +22°C° 0 mm 0 mps 742 mmHg 93%
    06:00 +23°C° 0 mm 0 mps 743 mmHg 89%
    07:00 +24°C° 0 mm 0 mps 743 mmHg 86%
    08:00 +25°C° 0 mm 0 mps 744 mmHg 82%
    09:00 +28°C° 0 mm 0 mps 743 mmHg 69%
    10:00 +31°C° 0 mm 0 mps 743 mmHg 56%
    11:00 +34°C° 0 mm 0 mps 743 mmHg 43%
    12:00 +34°C° 0 mm 0 mps 742 mmHg 39%
    13:00 +35°C° 0 mm 0 mps 741 mmHg 34%
    14:00 +35°C° 0 mm 0 mps 740 mmHg 30%
    15:00 +33°C° 0 mm 0 mps 740 mmHg 35%
    16:00 +31°C° 0 mm 0 mps 740 mmHg 41%
    17:00 +31°C° 0 mm 1 mps 740 mmHg 46%
    18:00 +28°C° 0 mm 0 mps 741 mmHg 49%
    19:00 +26°C° 0 mm 0 mps 742 mmHg 53%
    20:00 +25°C° 0 mm 0 mps 742 mmHg 56%
    21:00 +24°C° 0 mm 0 mps 742 mmHg 63%
    22:00 +23°C° 0 mm 0 mps 742 mmHg 70%
    23:00 +25°C° 0 mm 1 mps 742 mmHg 77%

    18 December, Tuesday

    Time Temperature Precipitation Wind Pressure Humidity
    00:00 +22°C° 0 mm 0 mps 742 mmHg 83%
    01:00 +22°C° 0 mm 0 mps 742 mmHg 89%
    02:00 +22°C° 0 mm 0 mps 741 mmHg 94%
    03:00 +22°C° 0 mm 0 mps 741 mmHg 95%
    04:00 +22°C° 0 mm 0 mps 742 mmHg 96%
    05:00 +22°C° 0 mm 0 mps 742 mmHg 96%
    06:00 +23°C° 0 mm 0 mps 742 mmHg 91%
    07:00 +24°C° 0 mm 0 mps 743 mmHg 87%
    08:00 +25°C° 0 mm 0 mps 743 mmHg 82%
    09:00 +28°C° 0 mm 0 mps 743 mmHg 70%
    10:00 +31°C° 0 mm 0 mps 743 mmHg 57%
    11:00 +34°C° 0 mm 0 mps 743 mmHg 45%
    12:00 +34°C° 0 mm 0 mps 742 mmHg 40%
    13:00 +35°C° 0 mm 0 mps 741 mmHg 35%
    14:00 +35°C° 0 mm 0 mps 740 mmHg 30%
    15:00 +34°C° 0 mm 0 mps 740 mmHg 35%
    16:00 +32°C° 0 mm 0 mps 740 mmHg 40%
    17:00 +32°C° 0 mm 1 mps 740 mmHg 45%
    18:00 +30°C° 0 mm 1 mps 741 mmHg 50%
    19:00 +28°C° 0 mm 1 mps 741 mmHg 55%
    20:00 +27°C° 0 mm 1 mps 742 mmHg 60%
    21:00 +26°C° 0 mm 1 mps 742 mmHg 69%
    22:00 +25°C° 0 mm 1 mps 742 mmHg 77%
    23:00 +25°C° 0 mm 1 mps 742 mmHg 86%
    Show more